• In Czech Republic
  • List of Countries
  • For 7 days
  • Water Temperature
  • Satellite Maps
  • Weather Map
  • Weather Widgets
  • user-avatar
    Login

    Hourly Weather Taypak

    Today, 22 October, Monday

    Time Temperature Precipitation Wind Pressure Humidity
    00:00 +12°C° 0 mm 4 mps 767 mmHg 49%
    01:00 +11°C° 0 mm 4 mps 767 mmHg 50%
    02:00 +10°C° 0 mm 4 mps 768 mmHg 52%
    03:00 +8°C° 0 mm 4 mps 767 mmHg 55%
    04:00 +8°C° 0 mm 4 mps 768 mmHg 57%
    05:00 +7°C° 0 mm 4 mps 768 mmHg 59%
    06:00 +7°C° 0 mm 4 mps 768 mmHg 60%
    07:00 +8°C° 0 mm 4 mps 768 mmHg 57%
    08:00 +9°C° 0 mm 5 mps 768 mmHg 55%
    09:00 +9°C° 0 mm 5 mps 769 mmHg 52%
    10:00 +12°C° 0 mm 5 mps 768 mmHg 46%
    11:00 +13°C° 0 mm 5 mps 768 mmHg 41%
    12:00 +14°C° 0 mm 5 mps 768 mmHg 35%
    13:00 +14°C° 0 mm 4 mps 768 mmHg 34%
    14:00 +14°C° 0 mm 4 mps 768 mmHg 32%
    15:00 +14°C° 0 mm 4 mps 768 mmHg 30%
    16:00 +13°C° 0 mm 4 mps 768 mmHg 32%
    17:00 +12°C° 0 mm 4 mps 768 mmHg 34%
    18:00 +11°C° 0 mm 3 mps 768 mmHg 36%
    19:00 +10°C° 0 mm 3 mps 768 mmHg 38%
    20:00 +10°C° 0 mm 3 mps 768 mmHg 39%
    21:00 +9°C° 0 mm 3 mps 768 mmHg 41%
    22:00 +9°C° 0 mm 3 mps 768 mmHg 43%
    23:00 +9°C° 0 mm 3 mps 767 mmHg 45%

    Tomorrow, 23 October, Tuesday

    Time Temperature Precipitation Wind Pressure Humidity
    00:00 +8°C° 0 mm 3 mps 767 mmHg 47%
    01:00 +8°C° 0 mm 3 mps 767 mmHg 48%
    02:00 +8°C° 0 mm 3 mps 767 mmHg 48%
    03:00 +8°C° 0 mm 2 mps 767 mmHg 49%
    04:00 +8°C° 0 mm 3 mps 766 mmHg 50%
    05:00 +8°C° 0 mm 3 mps 766 mmHg 51%
    06:00 +7°C° 0 mm 3 mps 765 mmHg 51%
    07:00 +9°C° 0 mm 3 mps 765 mmHg 49%
    08:00 +11°C° 0 mm 3 mps 765 mmHg 47%
    09:00 +13°C° 0 mm 4 mps 765 mmHg 45%
    10:00 +14°C° 0 mm 4 mps 764 mmHg 42%
    11:00 +17°C° 0 mm 4 mps 764 mmHg 39%
    12:00 +17°C° 0 mm 5 mps 763 mmHg 36%
    13:00 +19°C° 0 mm 5 mps 763 mmHg 36%
    14:00 +19°C° 0 mm 5 mps 762 mmHg 35%
    15:00 +19°C° 0 mm 5 mps 762 mmHg 35%
    16:00 +17°C° 0 mm 5 mps 761 mmHg 38%
    17:00 +16°C° 0 mm 5 mps 761 mmHg 40%
    18:00 +16°C° 0 mm 5 mps 761 mmHg 43%
    19:00 +15°C° 0 mm 6 mps 761 mmHg 46%
    20:00 +15°C° 0 mm 6 mps 760 mmHg 49%
    21:00 +15°C° 0 mm 6 mps 760 mmHg 52%
    22:00 +14°C° 0 mm 6 mps 760 mmHg 56%
    23:00 +13°C° 0 mm 5 mps 759 mmHg 59%

    Day after tomorrow, 24 October, Wednesday

    Time Temperature Precipitation Wind Pressure Humidity
    00:00 +13°C° 0 mm 5 mps 759 mmHg 63%
    01:00 +12°C° 0 mm 5 mps 759 mmHg 69%
    02:00 +12°C° 0 mm 5 mps 758 mmHg 75%
    03:00 +12°C° 0 mm 5 mps 758 mmHg 81%
    04:00 +12°C° 0.1 mm 5 mps 758 mmHg 83%
    05:00 +12°C° 0.1 mm 5 mps 758 mmHg 84%
    06:00 +12°C° 0.1 mm 5 mps 757 mmHg 86%
    07:00 +13°C° 0 mm 5 mps 757 mmHg 81%
    08:00 +14°C° 0 mm 6 mps 757 mmHg 76%
    09:00 +15°C° 0 mm 6 mps 757 mmHg 71%
    10:00 +16°C° 0 mm 6 mps 757 mmHg 65%
    11:00 +17°C° 0 mm 7 mps 757 mmHg 59%
    12:00 +18°C° 0 mm 7 mps 756 mmHg 53%
    13:00 +18°C° 0 mm 7 mps 756 mmHg 51%
    14:00 +19°C° 0 mm 6 mps 756 mmHg 49%
    15:00 +19°C° 0 mm 6 mps 756 mmHg 47%
    16:00 +17°C° 0 mm 5 mps 756 mmHg 49%
    17:00 +17°C° 0 mm 4 mps 756 mmHg 51%
    18:00 +16°C° 0 mm 3 mps 756 mmHg 54%
    19:00 +16°C° 0 mm 2 mps 756 mmHg 56%
    20:00 +16°C° 0 mm 2 mps 756 mmHg 58%
    21:00 +15°C° 0 mm 2 mps 756 mmHg 60%
    22:00 +15°C° 0 mm 2 mps 756 mmHg 60%
    23:00 +14°C° 0 mm 3 mps 755 mmHg 61%

    25 October, Thursday

    Time Temperature Precipitation Wind Pressure Humidity
    00:00 +14°C° 0 mm 3 mps 755 mmHg 61%
    01:00 +14°C° 0 mm 4 mps 754 mmHg 59%
    02:00 +13°C° 0 mm 4 mps 754 mmHg 56%
    03:00 +13°C° 0 mm 5 mps 753 mmHg 54%
    04:00 +13°C° 0 mm 5 mps 753 mmHg 52%
    05:00 +13°C° 0 mm 5 mps 752 mmHg 50%
    06:00 +11°C° 0 mm 6 mps 752 mmHg 48%
    07:00 +14°C° 0 mm 6 mps 752 mmHg 46%
    08:00 +15°C° 0 mm 7 mps 751 mmHg 43%
    09:00 +17°C° 0 mm 7 mps 751 mmHg 41%
    10:00 +20°C° 0 mm 8 mps 750 mmHg 37%
    11:00 +22°C° 0 mm 9 mps 749 mmHg 33%
    12:00 +23°C° 0 mm 10 mps 749 mmHg 29%
    13:00 +24°C° 0 mm 10 mps 748 mmHg 29%
    14:00 +24°C° 0 mm 9 mps 747 mmHg 28%
    15:00 +26°C° 0 mm 9 mps 747 mmHg 27%
    16:00 +24°C° 0 mm 8 mps 747 mmHg 30%
    17:00 +23°C° 0 mm 8 mps 746 mmHg 32%
    18:00 +22°C° 0 mm 7 mps 746 mmHg 35%
    19:00 +22°C° 0 mm 8 mps 746 mmHg 37%
    20:00 +22°C° 0 mm 8 mps 745 mmHg 39%
    21:00 +22°C° 0 mm 9 mps 745 mmHg 41%
    22:00 +21°C° 0 mm 8 mps 745 mmHg 40%
    23:00 +20°C° 0 mm 7 mps 745 mmHg 39%

    26 October, Friday

    Time Temperature Precipitation Wind Pressure Humidity
    00:00 +20°C° 0 mm 7 mps 745 mmHg 38%
    01:00 +17°C° 0 mm 7 mps 746 mmHg 47%
    02:00 +16°C° 0 mm 8 mps 746 mmHg 56%
    03:00 +13°C° 0 mm 9 mps 747 mmHg 65%
    04:00 +12°C° 0.2 mm 9 mps 747 mmHg 66%
    05:00 +10°C° 0.2 mm 8 mps 748 mmHg 68%
    06:00 +9°C° 0.2 mm 8 mps 749 mmHg 69%
    07:00 +10°C° 0 mm 8 mps 750 mmHg 64%
    08:00 +10°C° 0 mm 7 mps 751 mmHg 59%
    09:00 +11°C° 0 mm 7 mps 752 mmHg 53%
    10:00 +11°C° 0 mm 7 mps 752 mmHg 48%
    11:00 +12°C° 0 mm 7 mps 752 mmHg 44%
    12:00 +14°C° 0 mm 7 mps 753 mmHg 39%
    13:00 +14°C° 0 mm 6 mps 753 mmHg 38%
    14:00 +14°C° 0 mm 6 mps 754 mmHg 37%
    15:00 +13°C° 0 mm 5 mps 754 mmHg 36%
    16:00 +13°C° 0 mm 4 mps 755 mmHg 38%
    17:00 +12°C° 0 mm 4 mps 755 mmHg 39%
    18:00 +12°C° 0 mm 3 mps 755 mmHg 41%
    19:00 +11°C° 0 mm 3 mps 755 mmHg 42%
    20:00 +11°C° 0 mm 3 mps 755 mmHg 43%
    21:00 +11°C° 0 mm 3 mps 756 mmHg 45%
    22:00 +10°C° 0 mm 3 mps 756 mmHg 47%
    23:00 +10°C° 0 mm 4 mps 756 mmHg 50%

    27 October, Saturday

    Time Temperature Precipitation Wind Pressure Humidity
    00:00 +10°C° 0 mm 4 mps 757 mmHg 52%
    01:00 +8°C° 0 mm 4 mps 757 mmHg 54%
    02:00 +8°C° 0 mm 3 mps 757 mmHg 56%
    03:00 +8°C° 0 mm 3 mps 758 mmHg 59%
    04:00 +8°C° 0 mm 3 mps 758 mmHg 60%
    05:00 +7°C° 0 mm 3 mps 759 mmHg 61%
    06:00 +7°C° 0 mm 3 mps 759 mmHg 62%
    07:00 +6°C° 0.1 mm 4 mps 760 mmHg 60%
    08:00 +7°C° 0.1 mm 5 mps 760 mmHg 58%
    09:00 +7°C° 0.1 mm 6 mps 761 mmHg 56%
    10:00 +7°C° 0 mm 6 mps 761 mmHg 51%
    11:00 +8°C° 0 mm 7 mps 762 mmHg 47%
    12:00 +8°C° 0 mm 7 mps 762 mmHg 42%
    13:00 +8°C° 0 mm 7 mps 763 mmHg 40%
    14:00 +8°C° 0 mm 7 mps 763 mmHg 39%
    15:00 +7°C° 0 mm 8 mps 764 mmHg 37%
    16:00 +8°C° 0 mm 7 mps 764 mmHg 41%
    17:00 +7°C° 0 mm 6 mps 765 mmHg 44%
    18:00 +6°C° 0 mm 5 mps 766 mmHg 48%
    19:00 +6°C° 0 mm 5 mps 767 mmHg 50%
    20:00 +5°C° 0 mm 4 mps 767 mmHg 52%
    21:00 +5°C° 0 mm 4 mps 768 mmHg 55%
    22:00 +5°C° 0 mm 4 mps 768 mmHg 56%
    23:00 +4°C° 0 mm 4 mps 769 mmHg 58%

    28 October, Sunday

    Time Temperature Precipitation Wind Pressure Humidity
    00:00 +4°C° 0 mm 4 mps 769 mmHg 59%
    01:00 +4°C° 0 mm 4 mps 770 mmHg 60%
    02:00 +4°C° 0 mm 4 mps 770 mmHg 61%
    03:00 +3°C° 0 mm 4 mps 771 mmHg 61%
    04:00 +3°C° 0 mm 4 mps 771 mmHg 62%
    05:00 +3°C° 0 mm 4 mps 771 mmHg 62%
    06:00 +4°C° 0 mm 4 mps 772 mmHg 62%
    07:00 +5°C° 0 mm 5 mps 772 mmHg 57%
    08:00 +7°C° 0 mm 6 mps 772 mmHg 53%
    09:00 +8°C° 0 mm 6 mps 772 mmHg 48%
    10:00 +9°C° 0 mm 7 mps 772 mmHg 46%
    11:00 +11°C° 0 mm 7 mps 773 mmHg 45%
    12:00 +12°C° 0 mm 8 mps 773 mmHg 43%
    13:00 +12°C° 0 mm 7 mps 773 mmHg 44%
    14:00 +12°C° 0 mm 7 mps 773 mmHg 44%
    15:00 +12°C° 0 mm 7 mps 773 mmHg 45%
    16:00 +13°C° 0 mm 6 mps 773 mmHg 48%
    17:00 +12°C° 0 mm 5 mps 773 mmHg 50%
    18:00 +10°C° 0 mm 5 mps 773 mmHg 53%
    19:00 +10°C° 0 mm 5 mps 773 mmHg 53%
    20:00 +9°C° 0 mm 5 mps 773 mmHg 53%
    21:00 +9°C° 0 mm 5 mps 773 mmHg 53%
    22:00 +9°C° 0 mm 5 mps 773 mmHg 55%
    23:00 +9°C° 0 mm 5 mps 773 mmHg 58%
    Show more